Location: G�kdere
(37.0328°N, 30.9000°E)
Time: 04:53:50
(UTC+00:00)

IRIS - Pass Details

Date: 03 March 2021
Orbit: 281 x 2673 km, 41.1° (Epoch: 20 April)

Event Time Altitude Azimuth Distance (km) Brightness Sun altitude
Rises 16:42:10 0° 289° (WNW) 2,665 9.9 -10.7°
Reaches altitude 10° 16:44:48 10° 294° (WNW) 1,506 8.2 -11.2°
Maximum altitude 16:47:53 51° 12° (NNE) 424 4.2 -11.8°
Enters shadow 16:49:07 24° 80° (E) 685 4.7 -12.1°
